User: anonymous   Login
Location: Gallinara
(44.0333°N, 8.2333°E)
Time: 16:56:33
(UTC+00:00)
Language:

Cosmos 1814 Rocket - Orbit

View from above orbital plane
View from above orbital plane
View from above satellite
View from above satellite

Ground track
Ground track

The orbit data is extracted from the following two-line orbital elements,

1 17304U 87006B   20333.36076137  .00000070  00000-0  31809-4 0  9992
2 17304  74.0581 294.2123 0029717 179.9991 180.1169 14.37714850774392
Epoch (UTC): 28 November 2020 08:39:29
Eccentricity: 0.0029717
inclination: 74.0581°
perigee height: 745 km
apogee height: 787 km
right ascension of ascending node: 294.2123°
argument of perigee: 179.9991°
revolutions per day: 14.37714850
mean anomaly at epoch: 180.1169°
orbit number at epoch: 77439

The dashed part of the orbit path shows where the satellite is in the earth's shadow,  

DLR